EW9889 Weather Reports


time (UTC)temp
C
wind
direction
speed
KPH
gust
KPH
rain 1hr
cm
rain 24hr
cm
rain mn
cm
humidity
%
barometer
mb
20260507195513 30 71 8.0 19.3 0.00 0.00 0.00 70 1015.2
20260507195013 30 46 8.0 19.3 0.00 0.00 0.00 70 1015.2
20260507194513 30 355 8.0 20.9 0.00 0.00 0.00 70 1015.2
20260507194011 30 30 4.8 20.9 0.00 0.00 0.00 71 1015.3
20260507193511 30 82 8.0 22.5 0.00 0.00 0.00 72 1015.3
20260507193011 29 88 11.3 22.5 0.00 0.00 0.00 72 1015.4
20260507192511 30 83 9.7 20.9 0.00 0.00 0.00 70 1015.5
20260507192010 30 98 6.4 22.5 0.00 0.00 0.00 71 1015.5
20260507191511 30 50 11.3 22.5 0.00 0.00 0.00 70 1015.3
20260507191010 30 40 6.4 20.9 0.00 0.00 0.00 70 1015.4
20260507190510 30 52 4.8 22.5 0.00 0.00 0.00 71 1015.4
20260507190020 30 345 8.0 22.5 0.00 0.00 0.00 70 1015.4
20260507185509 30 309 3.2 17.7 0.00 0.00 0.00 70 1015.5
20260507185010 30 86 9.7 17.7 0.00 0.00 0.00 68 1015.6
20260507184510 31 51 4.8 17.7 0.00 0.00 0.00 69 1015.6
20260507184009 31 336 1.6 16.1 0.00 0.00 0.00 68 1015.7
20260507183509 31 61 3.2 17.7 0.00 0.00 0.00 68 1015.8
20260507183016 30 57 9.7 19.3 0.00 0.00 0.00 65 1015.9
20260507182510 31 89 3.2 14.5 0.00 0.00 0.00 63 1016.0
20260507182011 31 349 4.8 14.5 0.00 0.00 0.00 63 1016.0
20260507181508 31 61 3.2 9.7 0.00 0.00 0.00 64 1016.2
20260507181009 31 55 3.2 12.9 0.00 0.00 0.00 63 1016.2
20260507180508 32 355 3.2 12.9 0.00 0.00 0.00 58 1016.3
20260507180010 32 85 3.2 14.5 0.00 0.00 0.00 61 1016.2
20260507175507 32 139 1.6 14.5 0.00 0.00 0.00 63 1016.2
20260507175004 31 252 3.2 19.3 0.00 0.00 0.00 62 1016.3
20260507174508 31 44 4.8 19.3 0.00 0.00 0.00 61 1016.3
20260507174004 31 338 3.2 17.7 0.00 0.00 0.00 63 1016.3
20260507173505 31 306 3.2 17.7 0.00 0.00 0.00 64 1016.5
20260507173004 31 43 4.8 16.1 0.00 0.00 0.00 64 1016.5
20260507172502 31 117 4.8 14.5 0.00 0.00 0.00 61 1016.6
20260507172002 31 28 3.2 17.7 0.00 0.00 0.00 63 1016.7
20260507171604 31 128 1.6 17.7 0.00 0.00 0.00 63 1016.7
20260507171059 32 67 3.2 12.9 0.00 0.00 0.00 61 1016.7
20260507170603 32 98 3.2 12.9 0.00 0.00 0.00 62 1016.7
20260507170059 32 58 1.6 12.9 0.00 0.00 0.00 63 1016.7
20260507165557 32 346 3.2 14.5 0.00 0.00 0.00 63 1016.8
20260507165057 32 313 4.8 14.5 0.00 0.00 0.00 60 1016.9
20260507164557 32 231 3.2 14.5 0.00 0.00 0.00 59 1016.9
20260507164057 32 294 4.8 14.5 0.00 0.00 0.00 60 1017.1
20260507163558 32 340 3.2 9.7 0.00 0.00 0.00 60 1017.0
20260507163054 32 325 1.6 9.7 0.00 0.00 0.00 61 1016.9
20260507162554 32 335 3.2 9.7 0.00 0.00 0.00 60 1017.2
20260507162058 31 317 3.2 8.0 0.00 0.00 0.00 60 1017.1
20260507161553 31 259 1.6 14.5 0.00 0.00 0.00 63 1017.4
20260507161053 32 313 4.8 14.5 0.00 0.00 0.00 61 1017.4
20260507160553 32 265 1.6 11.3 0.00 0.00 0.00 61 1017.4
20260507160058 32 304 3.2 11.3 0.00 0.00 0.00 62 1017.5
20260507155550 32 297 1.6 11.3 0.00 0.00 0.00 62 1017.4
20260507155050 32 284 4.8 9.7 0.00 0.00 0.00 62 1017.4
20260507154550 32 262 3.2 8.0 0.00 0.00 0.00 63 1017.5
20260507154051 32 351 1.6 9.7 0.00 0.00 0.00 63 1017.5
20260507153551 32 302 1.6 11.3 0.00 0.00 0.00 64 1017.5
20260507153052 32 293 3.2 11.3 0.00 0.00 0.00 63 1017.6
20260507152550 32 258 3.2 11.3 0.00 0.00 0.00 61 1017.6
20260507152048 32 290 3.2 11.3 0.00 0.00 0.00 60 1017.6
20260507151545 31 307 0.0 11.3 0.00 0.00 0.00 63 1017.6
20260507151048 31 261 4.8 11.3 0.00 0.00 0.00 61 1017.6
20260507150546 31 302 3.2 9.7 0.00 0.00 0.00 63 1017.6
20260507150047 31 339 1.6 11.3 0.00 0.00 0.00 62 1017.7
20260507145546 31 226 3.2 11.3 0.00 0.00 0.00 63 1017.8
20260507145044 31 349 1.6 11.3 0.00 0.00 0.00 63 1017.8
20260507144549 31 338 3.2 12.9 0.00 0.00 0.00 63 1017.7
20260507144044 31 250 3.2 12.9 0.00 0.00 0.00 62 1017.8
20260507143544 31 355 1.6 9.7 0.00 0.00 0.00 62 1017.8
20260507143044 31 290 3.2 9.7 0.00 0.00 0.00 62 1017.7
20260507142544 31 300 3.2 8.0 0.00 0.00 0.00 63 1017.6
20260507142043 31 250 1.6 8.0 0.00 0.00 0.00 61 1017.6
20260507141547 31 231 1.6 9.7 0.00 0.00 0.00 61 1017.7
20260507141043 31 317 3.2 9.7 0.00 0.00 0.00 61 1017.7
20260507140543 31 355 4.8 9.7 0.00 0.00 0.00 62 1017.6
20260507140104 31 294 1.6 8.0 0.00 0.00 0.00 63 1017.7
20260507135541 31 256 3.2 8.0 0.00 0.00 0.00 61 1017.6
20260507135040 31 298 0.0 9.7 0.00 0.00 0.00 62 1017.8
20260507134538 31 348 1.6 6.4 0.00 0.00 0.00 63 1017.7
20260507134037 31 285 0.0 12.9 0.00 0.00 0.00 66 1017.6
20260507133540 31 316 3.2 12.9 0.00 0.00 0.00 67 1017.5
20260507133036 30 290 1.6 4.8 0.00 0.00 0.00 66 1017.5
20260507132535 30 351 1.6 6.4 0.00 0.00 0.00 65 1017.5
20260507132036 30 286 1.6 6.4 0.00 0.00 0.00 65 1017.6
20260507131536 30 273 3.2 6.4 0.00 0.00 0.00 65 1017.6
20260507131035 30 296 1.6 6.4 0.00 0.00 0.00 64 1017.5
20260507130534 30 279 0.0 6.4 0.00 0.00 0.00 66 1017.4
20260507130031 30 296 1.6 6.4 0.00 0.00 0.00 65 1017.4
20260507125534 30 306 1.6 4.8 0.00 0.00 0.00 67 1017.5
20260507125029 30 74 0.0 3.2 0.00 0.00 0.00 66 1017.6
20260507124528 30 39 0.0 3.2 0.00 0.00 0.00 66 1017.4
20260507124028 30 184 0.0 4.8 0.00 0.00 0.00 66 1017.5
20260507123526 29 350 0.0 4.8 0.00 0.00 0.00 68 1017.3
20260507123032 29 223 1.6 4.8 0.00 0.00 0.00 69 1017.3
20260507122528 29 300 0.0 4.8 0.00 0.00 0.00 69 1017.2
20260507122024 29 282 1.6 4.8 0.00 0.00 0.00 68 1017.2
20260507121523 29 190 0.0 3.2 0.00 0.00 0.00 67 1017.1
20260507121022 28 200 0.0 3.2 0.00 0.00 0.00 69 1017.1
20260507120521 28 197 0.0 3.2 0.00 0.00 0.00 70 1017.0
20260507120019 28 90 0.0 3.2 0.00 0.00 0.00 69 1016.8
20260507115518 28 115 0.0 3.2 0.00 0.00 0.00 70 1016.7
20260507115016 27 247 0.0 3.2 0.00 0.00 0.00 72 1016.5
20260507114515 27 227 1.6 3.2 0.00 0.00 0.00 74 1016.5
20260507114013 27 249 0.0 3.2 0.00 0.00 0.00 77 1016.4
20260507113512 27 217 1.6 3.2 0.00 0.00 0.00 76 1016.3
20260507113014 27 207 0.0 3.2 0.00 0.00 0.00 78 1016.3
20260507112511 26 70 0.0 1.6 0.00 0.00 0.00 79 1016.3
20260507112015 26 70 0.0 1.6 0.00 0.00 0.00 80 1016.4
20260507111511 25 70 0.0 3.2 0.00 0.00 0.00 81 1016.4
20260507111009 25 70 0.0 4.8 0.00 0.00 0.00 82 1016.2
20260507110512 24 70 1.6 4.8 0.00 0.00 0.00 82 1016.1
20260507110009 24 70 1.6 4.8 0.00 0.00 0.00 83 1016.2
20260507105510 24 70 1.6 4.8 0.00 0.00 0.00 83 1016.3
20260507105008 23 65 1.6 6.4 0.00 0.00 0.00 84 1016.3
20260507104512 23 61 3.2 6.4 0.00 0.00 0.00 84 1016.2
20260507104009 23 65 3.2 6.4 0.00 0.00 0.00 85 1016.2
20260507103508 23 76 3.2 4.8 0.00 0.00 0.00 86 1016.2
20260507103009 23 79 1.6 6.4 0.00 0.00 0.00 87 1016.1
20260507102512 22 60 3.2 6.4 0.00 0.00 0.00 87 1016.2
20260507102009 22 68 3.2 4.8 0.00 0.00 0.00 87 1016.1
20260507101508 22 63 3.2 4.8 0.00 0.00 0.00 87 1016.1
20260507101006 22 58 1.6 4.8 0.00 0.00 0.00 87 1016.1
20260507100507 22 69 3.2 4.8 0.00 0.00 0.00 86 1016.0
20260507100006 22 57 1.6 4.8 0.00 0.00 0.00 86 1015.9
20260507095505 23 69 3.2 4.8 0.00 0.00 0.00 86 1015.8
20260507095005 23 77 1.6 4.8 0.00 0.00 0.00 86 1015.8
20260507094503 23 72 0.0 3.2 0.00 0.00 0.00 86 1015.6
20260507094004 23 74 0.0 3.2 0.00 0.00 0.00 86 1015.5
20260507093502 23 74 0.0 4.8 0.00 0.00 0.00 86 1015.5
20260507093003 23 74 0.0 4.8 0.00 0.00 0.00 85 1015.4
20260507092502 23 59 1.6 3.2 0.00 0.00 0.00 85 1015.4
20260507092101 24 91 1.6 3.2 0.00 0.00 0.00 84 1015.3
20260507091606 24 89 0.0 3.2 0.00 0.00 0.00 84 1015.4
20260507091059 24 91 0.0 6.4 0.00 0.00 0.00 84 1015.3
20260507090600 24 73 1.6 8.0 0.00 0.00 0.00 84 1015.3
20260507090058 23 90 4.8 8.0 0.00 0.00 0.00 85 1015.4
20260507085559 23 75 4.8 6.4 0.00 0.00 0.00 86 1015.4
20260507085058 24 89 4.8 9.7 0.00 0.00 0.00 86 1015.4
20260507084558 24 84 4.8 9.7 0.00 0.00 0.00 86 1015.5
20260507084057 23 83 4.8 8.0 0.00 0.00 0.00 87 1015.6
20260507083557 23 82 6.4 8.0 0.00 0.00 0.00 88 1015.7
20260507083103 23 81 6.4 9.7 0.00 0.00 0.00 88 1015.7
20260507082558 23 80 4.8 6.4 0.00 0.00 0.00 88 1015.7
20260507082056 23 83 3.2 4.8 0.00 0.00 0.00 89 1015.7
20260507081556 23 86 1.6 3.2 0.00 0.00 0.00 89 1015.8
20260507081056 23 73 0.0 3.2 0.00 0.00 0.00 89 1015.7
20260507080554 23 73 0.0 4.8 0.00 0.00 0.00 88 1015.6
20260507080121 23 73 1.6 6.4 0.00 0.00 0.00 88 1015.5
20260507075556 23 86 3.2 6.4 0.00 0.00 0.00 88 1015.6
20260507075053 23 84 3.2 6.4 0.00 0.00 0.00 88 1015.5
20260507074601 23 65 3.2 4.8 0.00 0.00 0.00 88 1015.5
20260507074052 23 105 0.0 4.8 0.00 0.00 0.00 88 1015.6
20260507073551 23 68 1.6 6.4 0.00 0.00 0.00 88 1015.6
20260507073059 24 89 3.2 6.4 0.00 0.00 0.00 87 1015.7
20260507072550 24 58 1.6 4.8 0.00 0.00 0.00 87 1015.7
20260507072049 24 60 0.0 4.8 0.00 0.00 0.00 86 1015.7
20260507071600 25 58 3.2 4.8 0.00 0.00 0.00 85 1015.8
20260507071045 25 69 0.0 3.2 0.00 0.00 0.00 84 1015.7
20260507070544 25 69 0.0 3.2 0.00 0.00 0.00 83 1015.9
20260507070043 25 69 1.6 4.8 0.00 0.00 0.00 83 1015.9
20260507065543 26 130 1.6 4.8 0.00 0.00 0.00 82 1015.9
20260507065041 26 106 1.6 4.8 0.00 0.00 0.00 82 1016.0
20260507064546 26 159 1.6 6.4 0.00 0.00 0.00 81 1016.0
20260507064040 26 135 1.6 8.0 0.00 0.00 0.00 81 1016.1
20260507063539 26 221 3.2 9.7 0.00 0.00 0.00 80 1016.1
20260507063040 26 188 1.6 6.4 0.00 0.00 0.00 80 1016.1
20260507062537 26 121 1.6 8.0 0.00 0.00 0.00 81 1016.1
20260507062037 26 169 0.0 3.2 0.00 0.00 0.00 80 1016.1
20260507061536 26 189 0.0 3.2 0.00 0.00 0.00 79 1016.3
20260507061034 26 161 0.0 3.2 0.00 0.00 0.00 80 1016.3
20260507060533 26 162 0.0 3.2 0.00 0.00 0.00 79 1016.4
20260507060033 26 139 0.0 3.2 0.00 0.00 0.00 79 1016.5
20260507055533 26 172 0.0 3.2 0.00 0.00 0.00 79 1016.5
20260507055032 26 216 0.0 6.4 0.00 0.00 0.00 79 1016.5
20260507054532 26 157 1.6 6.4 0.00 0.00 0.00 79 1016.6
20260507054030 26 183 0.0 8.0 0.00 0.00 0.00 80 1016.8
20260507053530 26 229 1.6 8.0 0.00 0.00 0.00 81 1016.8
20260507053030 26 207 0.0 6.4 0.00 0.00 0.00 81 1017.0
20260507052529 26 173 0.0 6.4 0.00 0.00 0.00 81 1016.9
20260507052028 26 167 1.6 6.4 0.00 0.00 0.00 81 1016.9
20260507051528 26 188 1.6 6.4 0.00 0.00 0.00 82 1016.9
20260507051026 26 209 3.2 8.0 0.00 0.00 0.00 82 1017.0
20260507050525 26 229 3.2 6.4 0.00 0.00 0.00 83 1017.1
20260507050025 26 201 3.2 6.4 0.00 0.00 0.00 83 1017.2
20260507045524 26 201 1.6 9.7 0.00 0.00 0.00 82 1017.3
20260507045024 26 175 3.2 9.7 0.00 0.00 0.00 83 1017.4
20260507044524 26 224 3.2 8.0 0.00 0.00 0.00 83 1017.4
20260507044022 26 194 1.6 8.0 0.00 0.00 0.00 83 1017.5
20260507043522 26 204 3.2 8.0 0.00 0.00 0.00 83 1017.5
20260507043029 26 223 3.2 8.0 0.00 0.00 0.00 83 1017.6
20260507042520 26 209 0.0 3.2 0.00 0.00 0.00 83 1017.8
20260507042019 26 126 0.0 4.8 0.00 0.00 0.00 83 1017.8
20260507041519 27 112 0.0 4.8 0.00 0.00 0.00 83 1017.7
20260507041018 26 120 0.0 3.2 0.00 0.00 0.00 83 1017.8
20260507040517 26 159 0.0 4.8 0.00 0.00 0.00 83 1017.9
20260507040016 26 176 0.0 4.8 0.00 0.00 0.00 83 1018.0
20260507035515 26 148 1.6 4.8 0.00 0.00 0.00 83 1018.0
20260507035016 26 147 1.6 6.4 0.00 0.00 0.00 83 1018.1
20260507034616 26 92 1.6 6.4 0.00 0.00 0.00 83 1018.0
20260507034014 27 183 0.0 4.8 0.00 0.00 0.00 83 1018.2
20260507033519 27 154 0.0 4.8 0.00 0.00 0.00 83 1018.2
20260507033016 27 218 0.0 4.8 0.00 0.00 0.00 83 1018.2
20260507032514 26 157 3.2 4.8 0.00 0.00 0.00 83 1018.1
20260507032017 26 151 3.2 6.4 0.00 0.00 0.00 83 1018.2
20260507031514 26 144 1.6 4.8 0.00 0.00 0.00 84 1018.3
20260507031014 26 157 1.6 6.4 0.00 0.00 0.00 84 1018.2
20260507030513 26 176 0.0 1.6 0.00 0.00 0.00 84 1018.2
20260507030014 26 182 0.0 1.6 0.00 0.00 0.00 84 1018.3
20260507025513 26 194 0.0 3.2 0.00 0.00 0.00 84 1018.4
20260507025013 27 194 0.0 3.2 0.00 0.00 0.00 83 1018.3
20260507024513 27 105 0.0 1.6 0.00 0.00 0.00 83 1018.4
20260507024012 27 107 0.0 3.2 0.00 0.00 0.00 83 1018.3
20260507023517 27 85 0.0 3.2 0.00 0.00 0.00 82 1018.3
20260507023013 27 90 0.0 4.8 0.00 0.00 0.00 83 1018.2
20260507022513 27 75 0.0 4.8 0.00 0.00 0.00 82 1018.2
20260507022015 27 94 0.0 4.8 0.00 0.00 0.00 82 1018.2
20260507021515 27 93 1.6 4.8 0.00 0.00 0.00 82 1018.2
20260507021015 27 51 1.6 4.8 0.00 0.00 0.00 82 1018.1
20260507020512 27 61 3.2 9.7 0.00 0.00 0.00 82 1018.1
20260507020013 27 85 3.2 9.7 0.00 0.00 0.00 82 1018.1
20260507015510 27 67 4.8 9.7 0.00 0.00 0.00 82 1018.0
20260507015015 27 76 4.8 11.3 0.00 0.00 0.00 82 1017.8
20260507014511 27 79 4.8 11.3 0.00 0.00 0.00 82 1017.8
20260507014010 27 21 4.8 9.7 0.00 0.00 0.00 82 1017.7
20260507013510 27 67 3.2 9.7 0.00 0.00 0.00 82 1017.8
20260507013009 27 40 3.2 12.9 0.00 0.00 0.00 82 1017.7
20260507012514 27 76 4.8 8.0 0.00 0.00 0.00 82 1017.7
20260507012009 27 55 3.2 11.3 0.00 0.00 0.00 82 1017.7
20260507011516 27 66 3.2 11.3 0.00 0.00 0.00 82 1017.6
20260507011008 27 65 3.2 6.4 0.00 0.00 0.00 82 1017.5
20260507010509 27 103 4.8 8.0 0.00 0.00 0.00 82 1017.5
20260507010008 27 71 4.8 8.0 0.00 0.00 0.00 81 1017.6
20260507005512 27 82 3.2 8.0 0.00 0.00 0.00 81 1017.4
20260507005008 27 66 3.2 8.0 0.00 0.00 0.00 81 1017.5
20260507004511 27 45 4.8 9.7 0.00 0.00 0.00 81 1017.4
20260507004008 27 41 1.6 8.0 0.00 0.00 0.00 81 1017.4
20260507003508 27 49 1.6 4.8 0.00 0.00 0.00 80 1017.5
20260507003010 27 34 0.0 3.2 0.00 0.00 0.00 79 1017.5
20260507002507 27 57 0.0 3.2 0.00 0.00 0.00 79 1017.5
20260507002011 27 55 1.6 4.8 0.00 0.00 0.00 79 1017.5
20260507001507 27 39 1.6 4.8 0.00 0.00 0.00 78 1017.5
20260507001009 27 51 1.6 4.8 0.00 0.00 0.00 78 1017.4
20260507000509 27 50 0.0 4.8 0.00 0.00 0.00 77 1017.4
20260507000007 27 31 1.6 6.4 0.00 0.00 0.00 77 1017.4
20260506235507 27 41 1.6 6.4 0.00 0.00 0.00 76 1017.4
20260506235006 27 59 1.6 4.8 0.00 0.00 0.00 77 1017.4
20260506234510 27 12 1.6 4.8 0.00 0.00 0.00 77 1017.4
20260506234006 27 13 1.6 3.2 0.00 0.00 0.00 76 1017.3
20260506233506 27 39 1.6 6.4 0.00 0.00 0.00 76 1017.1
20260506233006 27 27 1.6 9.7 0.00 0.00 0.00 76 1017.1
20260506232606 27 38 1.6 9.7 0.00 0.00 0.00 76 1017.1
20260506232009 27 51 3.2 11.3 0.00 0.00 0.00 76 1017.1
20260506231505 27 63 3.2 11.3 0.00 0.00 0.00 75 1017.0
20260506231004 28 51 3.2 8.0 0.00 0.00 0.00 76 1017.0
20260506230504 28 105 1.6 6.4 0.00 0.00 0.00 76 1016.9
20260506230004 28 63 0.0 4.8 0.00 0.00 0.00 76 1016.8
20260506225504 28 100 1.6 4.8 0.00 0.00 0.00 76 1016.8
20260506225004 28 5 1.6 11.3 0.00 0.00 0.00 75 1016.6
20260506224505 28 338 4.8 11.3 0.00 0.00 0.00 75 1016.6
20260506224006 28 34 1.6 8.0 0.00 0.00 0.00 75 1016.4
20260506223504 28 36 3.2 9.7 0.00 0.00 0.00 75 1016.4
20260506223005 28 350 3.2 9.7 0.00 0.00 0.00 74 1016.4
20260506222504 28 76 1.6 8.0 0.00 0.00 0.00 74 1016.3
20260506222006 28 58 1.6 8.0 0.00 0.00 0.00 74 1016.3
20260506221504 28 67 3.2 8.0 0.00 0.00 0.00 74 1016.2
20260506221002 28 30 1.6 8.0 0.00 0.00 0.00 73 1016.3
20260506220502 28 55 1.6 11.3 0.00 0.00 0.00 74 1016.2
20260506220003 28 24 1.6 11.3 0.00 0.00 0.00 73 1016.1
20260506215501 28 5 1.6 12.9 0.00 0.00 0.00 73 1016.0
20260506215002 28 328 3.2 12.9 0.00 0.00 0.00 74 1015.9
20260506214502 28 43 1.6 9.7 0.00 0.00 0.00 73 1015.9
20260506214002 28 54 3.2 9.7 0.00 0.00 0.00 73 1016.0
20260506213501 28 59 3.2 9.7 0.00 0.00 0.00 73 1015.9
20260506213001 28 47 4.8 12.9 0.00 0.00 0.00 72 1015.8
20260506212503 29 78 4.8 12.9 0.00 0.00 0.00 71 1015.6
20260506212002 29 74 3.2 8.0 0.00 0.00 0.00 71 1015.7
20260506211501 29 76 3.2 8.0 0.00 0.00 0.00 71 1015.6
20260506211103 29 54 3.2 8.0 0.00 0.00 0.00 69 1015.6
20260506211002 29 65 1.6 8.0 0.00 0.00 0.00 69 1015.6
20260506210502 29 78 3.2 9.7 0.00 0.00 0.00 68 1015.6
20260506210121 29 360 1.6 12.9 0.00 0.00 0.00 68 1015.6
20260506205600 30 323 4.8 12.9 0.00 0.00 0.00 67 1015.7
20260506205101 30 344 3.2 17.7 0.00 0.00 0.00 68 1015.7
20260506204600 30 335 4.8 17.7 0.00 0.00 0.00 69 1015.7
20260506204100 30 329 3.2 9.7 0.00 0.00 0.00 66 1015.6
20260506203559 30 343 4.8 12.9 0.00 0.00 0.00 64 1015.6
20260506203143 30 69 4.8 12.9 0.00 0.00 0.00 64 1015.7
20260506202558 30 38 3.2 11.3 0.00 0.00 0.00 64 1015.7
20260506202059 30 252 1.6 14.5 0.00 0.00 0.00 65 1015.9
20260506201558 30 328 4.8 16.1 0.00 0.00 0.00 65 1015.7
20260506201059 30 75 8.0 16.1 0.00 0.00 0.00 63 1015.8
20260506200556 30 9 3.2 14.5 0.00 0.00 0.00 63 1016.0
20260506200056 30 295 3.2 17.7 0.00 0.00 0.00 63 1016.0